K5NWZ Weather Reports


time (UTC)temp
C
wind
direction
speed
KPH
gust
KPH
rain 1hr
cm
rain 24hr
cm
rain mn
cm
humidity
%
barometer
mb
20260505040128 10 286 1.6 4.8 0.00 0.23 0.23 85 1019.7
20260505035624 10 303 0.0 1.6 0.00 0.23 0.23 85 1019.6
20260505035120 10 284 0.0 3.2 0.00 0.23 0.23 84 1019.7
20260505034617 10 219 1.6 3.2 0.00 0.23 0.23 85 1019.7
20260505034114 10 185 3.2 6.4 0.00 0.23 0.23 85 1019.6
20260505033611 10 266 1.6 4.8 0.00 0.23 0.23 85 1019.7
20260505033109 10 191 4.8 6.4 0.00 0.23 0.23 85 1019.7
20260505032607 10 234 1.6 4.8 0.00 0.23 0.23 87 1019.8
20260505032103 10 204 3.2 3.2 0.00 0.23 0.23 88 1019.4
20260505031601 10 212 0.0 3.2 0.00 0.23 0.23 88 1019.4
20260505031056 10 246 1.6 1.6 0.00 0.23 0.23 88 1019.6
20260505030554 10 276 0.0 1.6 0.00 0.23 0.23 88 1019.5
20260505030049 10 281 0.0 3.2 0.00 0.23 0.23 87 1019.2
20260505025545 9 293 0.0 1.6 0.00 0.23 0.23 89 1019.4
20260505025045 10 294 0.0 0.0 0.00 0.23 0.23 89 1019.4
20260505024541 9 283 0.0 0.0 0.00 0.23 0.23 89 1018.9
20260505024038 9 279 0.0 0.0 0.00 0.23 0.23 90 1018.9
20260505023535 9 312 0.0 0.0 0.00 0.23 0.23 89 1018.9
20260505023033 9 268 0.0 0.0 0.00 0.23 0.23 89 1018.9
20260505022530 10 333 0.0 1.6 0.00 0.23 0.23 88 1018.7
20260505022027 10 304 0.0 0.0 0.00 0.23 0.23 86 1018.8
20260505021524 10 208 4.8 4.8 0.00 0.23 0.23 86 1018.7
20260505021020 10 226 3.2 4.8 0.00 0.23 0.23 87 1018.9
20260505020514 10 199 3.2 4.8 0.00 0.23 0.23 86 1018.8
20260505020012 10 212 1.6 4.8 0.00 0.23 0.23 87 1018.8
20260505015509 10 181 3.2 4.8 0.00 0.23 0.23 86 1019.0
20260505015006 10 304 0.0 0.0 0.00 0.23 0.23 86 1018.8
20260505014503 10 276 0.0 1.6 0.00 0.23 0.23 85 1018.8
20260505014000 10 297 0.0 1.6 0.00 0.23 0.23 86 1018.9
20260505013457 10 303 1.6 1.6 0.00 0.23 0.23 86 1019.0
20260505012954 10 329 1.6 1.6 0.00 0.23 0.23 85 1019.1
20260505012452 10 303 1.6 1.6 0.00 0.23 0.23 84 1018.8
20260505011949 10 181 1.6 3.2 0.00 0.23 0.23 84 1018.9
20260505011444 10 255 1.6 6.4 0.18 0.23 0.23 86 1018.9
20260505010942 10 264 3.2 4.8 0.00 0.20 0.20 87 1019.1
20260505010437 10 204 4.8 6.4 0.00 0.20 0.20 86 1018.9
20260505005934 10 273 3.2 4.8 0.13 0.20 0.20 86 1018.9
20260505005430 10 257 1.6 3.2 0.30 0.20 0.20 85 1018.9
20260505004928 10 289 4.8 6.4 0.30 0.18 0.18 84 1018.7
20260505004424 11 257 3.2 6.4 0.13 0.15 0.15 80 1018.8
20260505003922 11 283 4.8 9.7 0.18 0.13 0.13 78 1018.8
20260505003419 11 311 3.2 9.7 0.18 0.13 0.13 76 1018.9
20260505002915 12 316 6.4 12.9 0.00 0.10 0.10 70 1018.8
20260505002411 12 313 0.0 1.6 0.00 0.10 0.10 75 1018.8
20260505001910 12 301 0.0 1.6 0.00 0.10 0.10 76 1018.9
20260505001407 12 273 1.6 3.2 0.00 0.10 0.10 73 1018.5
20260505000904 11 304 1.6 3.2 0.00 0.10 0.10 80 1018.9
20260505000402 11 299 0.0 1.6 0.00 0.10 0.10 80 1018.7
20260504235858 11 283 1.6 1.6 0.00 0.10 0.10 76 1018.7
20260504235355 11 106 1.6 1.6 0.00 0.10 0.10 79 1018.4
20260504234851 11 239 1.6 1.6 0.18 0.10 0.10 76 1018.4
20260504234349 12 176 3.2 4.8 0.30 0.10 0.10 74 1018.3
20260504233846 11 54 3.2 4.8 0.13 0.08 0.08 67 1018.7
20260504233341 12 281 1.6 3.2 0.18 0.05 0.05 65 1018.4
20260504232838 13 195 4.8 11.3 0.13 0.03 0.03 60 1018.4
20260504232336 14 136 12.9 16.1 0.13 0.03 0.03 56 1018.8
20260504231832 16 286 3.2 9.7 0.00 0.00 0.00 46 1018.3
20260504231329 16 296 0.0 1.6 0.00 0.00 0.00 43 1018.1
20260504230825 16 290 3.2 11.3 0.00 0.00 0.00 40 1017.5
20260504230323 16 308 0.0 3.2 0.00 0.00 0.00 38 1017.6
20260504225822 17 262 3.2 9.7 0.00 0.00 0.00 37 1017.6
20260504225317 17 303 0.0 3.2 0.00 0.00 0.00 37 1017.1
20260504224815 17 306 1.6 9.7 0.00 0.00 0.00 36 1017.0
20260504224312 17 321 6.4 12.9 0.00 0.00 0.00 36 1016.8
20260504223808 17 288 6.4 16.1 0.00 0.00 0.00 36 1017.0
20260504223304 18 288 4.8 11.3 0.00 0.00 0.00 35 1016.9
20260504222801 18 346 8.0 14.5 0.00 0.00 0.00 33 1016.9
20260504222258 19 333 8.0 12.9 0.00 0.00 0.00 34 1016.9
20260504221755 19 264 3.2 16.1 0.00 0.00 0.00 35 1017.1
20260504221252 19 311 8.0 11.3 0.00 0.00 0.00 34 1016.8
20260504220749 18 318 9.7 11.3 0.00 0.00 0.00 35 1017.1
20260504220246 18 318 1.6 4.8 0.00 0.00 0.00 37 1017.0
20260504215743 17 12 4.8 4.8 0.00 0.00 0.00 38 1017.3
20260504215240 17 0 1.6 1.6 0.00 0.00 0.00 37 1017.6
20260504214736 17 296 4.8 6.4 0.00 0.00 0.00 38 1017.6
20260504214232 17 359 3.2 3.2 0.00 0.00 0.00 40 1017.6
20260504213729 16 294 3.2 4.8 0.00 0.00 0.00 40 1017.6
20260504213225 16 12 1.6 3.2 0.00 0.00 0.00 39 1017.5
20260504212723 16 352 0.0 4.8 0.00 0.00 0.00 39 1017.8
20260504212219 16 315 1.6 1.6 0.00 0.00 0.00 40 1017.7
20260504211717 16 273 3.2 6.4 0.00 0.00 0.00 40 1017.7
20260504211213 16 306 4.8 9.7 0.00 0.00 0.00 41 1017.7
20260504210710 16 285 6.4 16.1 0.00 0.00 0.00 41 1017.8
20260504210207 17 315 16.1 25.7 0.00 0.00 0.00 40 1017.6
20260504205704 17 278 14.5 20.9 0.00 0.00 0.00 37 1017.6
20260504205201 17 301 8.0 24.1 0.00 0.00 0.00 36 1017.5
20260504204700 17 325 9.7 12.9 0.00 0.00 0.00 35 1017.7
20260504204159 17 146 4.8 16.1 0.00 0.00 0.00 37 1017.6
20260504203657 17 356 6.4 12.9 0.00 0.00 0.00 35 1017.4
20260504203154 17 293 3.2 20.9 0.00 0.00 0.00 34 1017.1
20260504202649 17 287 8.0 9.7 0.00 0.00 0.00 36 1017.3
20260504202146 17 303 8.0 20.9 0.00 0.00 0.00 36 1017.4
20260504201643 17 291 9.7 16.1 0.00 0.00 0.00 37 1017.1
20260504201140 16 30 8.0 24.1 0.00 0.00 0.00 38 1017.7
20260504200637 16 302 6.4 17.7 0.00 0.00 0.00 37 1017.6
20260504200134 16 325 9.7 24.1 0.00 0.00 0.00 37 1017.7
20260504195630 17 312 14.5 38.6 0.00 0.00 0.00 38 1017.7
20260504195126 17 266 9.7 27.4 0.00 0.00 0.00 35 1017.4
20260504194623 18 306 8.0 24.1 0.00 0.00 0.00 32 1017.4
20260504194119 18 323 16.1 25.7 0.00 0.00 0.00 28 1017.3
20260504193615 19 314 8.0 17.7 0.00 0.00 0.00 27 1017.0
20260504193114 19 327 4.8 12.9 0.00 0.00 0.00 29 1017.0
20260504192612 19 281 4.8 17.7 0.00 0.00 0.00 29 1016.9
20260504192110 20 305 4.8 9.7 0.00 0.00 0.00 29 1016.9
20260504191608 20 301 1.6 12.9 0.00 0.00 0.00 28 1016.8
20260504191103 20 269 1.6 6.4 0.00 0.00 0.00 29 1016.7
20260504190600 20 222 4.8 14.5 0.00 0.00 0.00 27 1016.6
20260504190056 20 275 6.4 9.7 0.00 0.00 0.00 27 1016.7
20260504185553 20 234 6.4 11.3 0.00 0.00 0.00 27 1016.4
20260504185050 21 296 6.4 9.7 0.00 0.00 0.00 27 1016.4
20260504184545 21 247 4.8 11.3 0.00 0.00 0.00 27 1016.3
20260504184041 21 288 4.8 11.3 0.00 0.00 0.00 27 1016.7
20260504183538 21 239 11.3 14.5 0.00 0.00 0.00 26 1016.6
20260504183036 21 233 3.2 4.8 0.00 0.00 0.00 27 1016.7
20260504182532 21 289 3.2 6.4 0.00 0.00 0.00 26 1016.7
20260504182030 21 309 3.2 6.4 0.00 0.00 0.00 26 1016.7
20260504181527 21 251 8.0 12.9 0.00 0.00 0.00 25 1016.8
20260504181026 21 253 1.6 11.3 0.00 0.00 0.00 26 1016.6
20260504180524 21 261 3.2 4.8 0.00 0.00 0.00 25 1016.8
20260504180022 21 256 6.4 9.7 0.00 0.00 0.00 25 1016.7
20260504175519 21 266 3.2 6.4 0.00 0.00 0.00 26 1016.7
20260504175016 21 222 3.2 4.8 0.00 0.00 0.00 27 1016.8
20260504174514 21 220 1.6 9.7 0.00 0.00 0.00 27 1016.7
20260504174011 21 259 3.2 3.2 0.00 0.00 0.00 26 1016.8
20260504173507 21 229 6.4 9.7 0.00 0.00 0.00 26 1016.9
20260504173005 21 229 6.4 9.7 0.00 0.00 0.00 26 1017.1
20260504172501 21 190 3.2 6.4 0.00 0.00 0.00 27 1016.8
20260504171957 21 196 4.8 9.7 0.00 0.00 0.00 26 1017.1
20260504171454 21 242 3.2 4.8 0.00 0.00 0.00 26 1017.0
20260504170951 21 266 3.2 3.2 0.00 0.00 0.00 25 1017.0
20260504170447 21 198 3.2 4.8 0.00 0.00 0.00 25 1017.0
20260504160407 19 277 3.2 4.8 0.00 0.00 0.00 27 1017.1
20260504150831 16 208 1.6 4.8 0.00 0.00 0.00 36 1017.3
20260504150328 15 280 1.6 6.4 0.00 0.00 0.00 36 1017.6
20260504141258 12 333 0.0 0.0 0.00 0.00 0.00 49 1017.8
20260504140754 11 343 1.6 1.6 0.00 0.00 0.00 56 1018.0
20260504140250 10 342 0.0 0.0 0.00 0.00 0.00 57 1017.8
20260504130719 7 311 0.0 0.0 0.00 0.00 0.00 69 1018.1
20260504130214 7 338 0.0 1.6 0.00 0.00 0.00 70 1018.1
20260504120139 5 308 0.0 0.0 0.00 0.00 0.00 69 1017.7
20260504110606 5 285 0.0 0.0 0.00 0.00 0.00 73 1018.2
20260504100528 5 307 0.0 0.0 0.00 0.00 0.00 69 1018.4
20260504081921 7 286 0.0 0.0 0.00 0.00 0.00 51 1018.8
20260504081418 8 294 0.0 0.0 0.00 0.00 0.00 51 1018.9
20260504080914 8 289 0.0 0.0 0.00 0.00 0.00 49 1019.1
20260504080411 8 291 0.0 0.0 0.00 0.00 0.00 50 1019.2
20260504070338 10 304 0.0 1.6 0.00 0.00 0.00 46 1019.6
20260504050727 13 314 0.0 1.6 0.00 0.00 0.00 36 1020.1
20260504050224 13 310 1.6 1.6 0.00 0.00 0.00 36 1020.1
20260504045721 13 297 3.2 3.2 0.00 0.00 0.00 35 1020.1
20260504045215 14 311 1.6 3.2 0.00 0.00 0.00 34 1019.9
20260504044713 14 306 1.6 3.2 0.00 0.00 0.00 34 1019.9
20260504044210 14 316 1.6 3.2 0.00 0.00 0.00 34 1019.6
20260504043707 15 300 0.0 4.8 0.00 0.00 0.00 35 1019.8
20260504043204 15 305 1.6 4.8 0.00 0.00 0.00 35 1019.9
20260504042701 15 313 1.6 1.6 0.00 0.00 0.00 34 1019.8
20260504042158 15 327 3.2 4.8 0.00 0.00 0.00 34 1019.9
20260504041654 15 321 1.6 4.8 0.00 0.00 0.00 33 1019.8
20260504041150 15 309 1.6 3.2 0.00 0.00 0.00 32 1019.9
20260504040647 16 290 3.2 6.4 0.00 0.00 0.00 32 1019.9